Weather History for West Palm Beach, FL

Change the Weather History Date:

Tuesday, October 11, 2011

  Actual Average Record
Temperature  
Mean Temperature 82 °F 79 °F  
Max Temperature 91 °F 86 °F 91 °F (1992)
Min Temperature 72 °F 73 °F 58 °F (1903)
Degree Days  
Heating Degree Days 0 0  
Month to date heating degree days 0 0  
Since 1 July heating degree days 0 0  
Cooling Degree Days 17 14  
Month to date cooling degree days 175 165  
Year to date cooling degree days 4067 3373  
Growing Degree Days 32 (Base 50)    
Moisture  
Dew Point 71 °F    
Average Humidity 66    
Maximum Humidity 93    
Minimum Humidity 38    
Precipitation  
Precipitation 0.00 in 0.18 in 7.00 in (1964)
Month to date precipitation 0.04 2.14  
Year to date precipitation 35.81 51.21  
Snow  
Snow 0.00 in - - ()
Month to date snowfall 0.0  
Since 1 July snowfall 0.0  
Since 1 September snowfall 0.0  
Snow Depth 0.00 in    
Sea Level Pressure  
Sea Level Pressure 29.82 in    
Wind  
Wind Speed 7 mph (South)    
Max Wind Speed 17 mph    
Max Gust Speed 22 mph    
Visibility 10 miles    
Events      
T = Trace of Precipitation, MM = Missing Value Source: NWS Daily Summary

Daily Weather History Graph

Daily Weather History Graph

Search for Another Location

Airport:

Trip Planner

Search our weather history database for the weather conditions in past years. The results will help you decide how hot, cold, wet, or windy it might be!

Date:

Astronomy

Oct. 11, 2011 Rise Set
Actual Time 7:17 AM EDT 6:56 PM EDT
Civil Twilight 6:54 AM EDT 7:19 PM EDT
Nautical Twilight 6:27 AM EDT 7:46 PM EDT
Astronomical Twilight 6:00 AM EDT 8:13 PM EDT
Moon 6:32 PM EDT (10/11) 6:50 AM EDT (10/11)
Length of Visible Light 12h 25m
Length of Day
11h 38m
Full, 100% of the Moon is Illuminated
Oct 11
Full
Oct 11
Full
Oct 19
Last Quarter
Oct 26
New
Nov 2
First Quarter

Hourly Weather History & Observations

Time (EDT) Temp. Heat Index Dew Point Humidity Pressure Visibility Wind Dir Wind Speed Gust Speed Precip Events Conditions
12:53 AM 75.9 °F - 71.1 °F 85% 29.80 in 10.0 mi Calm Calm - N/A   Scattered Clouds
1:53 AM 75.9 °F - 72.0 °F 87% 29.80 in 10.0 mi Calm Calm - N/A   Scattered Clouds
2:53 AM 75.9 °F - 72.0 °F 87% 29.79 in 10.0 mi Calm Calm - N/A   Scattered Clouds
3:53 AM 73.9 °F - 71.1 °F 91% 29.78 in 10.0 mi SW 3.5 mph - N/A   Scattered Clouds
4:53 AM 73.9 °F - 71.1 °F 91% 29.78 in 10.0 mi Calm Calm - N/A   Scattered Clouds
5:53 AM 73.0 °F - 71.1 °F 93% 29.79 in 10.0 mi Calm Calm - N/A   Scattered Clouds
6:53 AM 73.0 °F - 71.1 °F 93% 29.81 in 10.0 mi Calm Calm - N/A   Scattered Clouds
7:53 AM 75.0 °F - 72.0 °F 90% 29.83 in 10.0 mi Calm Calm - N/A   Scattered Clouds
8:53 AM 78.1 °F - 73.9 °F 87% 29.85 in 10.0 mi South 3.5 mph - N/A   Scattered Clouds
9:53 AM 82.0 °F 86.7 °F 72.0 °F 71% 29.86 in 10.0 mi South 6.9 mph - N/A   Partly Cloudy
10:53 AM 84.0 °F 88.4 °F 70.0 °F 63% 29.86 in 10.0 mi SSW 8.1 mph - N/A   Scattered Clouds
11:53 AM 87.1 °F 91.3 °F 69.1 °F 55% 29.86 in 10.0 mi SW 6.9 mph 16.1 mph N/A   Scattered Clouds
12:53 PM 90.0 °F 93.6 °F 68.0 °F 48% 29.84 in 10.0 mi South 11.5 mph - N/A   Scattered Clouds
1:53 PM 90.0 °F 91.7 °F 64.9 °F 43% 29.82 in 10.0 mi SW 11.5 mph 17.3 mph N/A   Scattered Clouds
2:53 PM 91.0 °F 91.5 °F 62.1 °F 38% 29.80 in 10.0 mi SSW 8.1 mph 17.3 mph N/A   Scattered Clouds
3:53 PM 88.0 °F 94.7 °F 72.0 °F 59% 29.79 in 10.0 mi SSE 11.5 mph - N/A   Scattered Clouds
4:53 PM 84.9 °F 91.4 °F 73.0 °F 67% 29.79 in 10.0 mi SSE 15.0 mph - N/A   Scattered Clouds
5:53 PM 86.0 °F 92.2 °F 72.0 °F 63% 29.79 in 10.0 mi SE 13.8 mph - N/A   Scattered Clouds
6:53 PM 82.9 °F 88.8 °F 73.0 °F 72% 29.80 in 10.0 mi SSE 12.7 mph - N/A   Scattered Clouds
7:53 PM 82.0 °F 87.9 °F 73.9 °F 76% 29.81 in 10.0 mi SSE 11.5 mph - N/A   Partly Cloudy
8:53 PM 82.0 °F 87.4 °F 73.0 °F 74% 29.83 in 10.0 mi SSE 10.4 mph - N/A   Partly Cloudy
9:53 PM 82.0 °F 86.7 °F 72.0 °F 71% 29.85 in 10.0 mi SSE 5.8 mph - N/A   Partly Cloudy
10:53 PM 81.0 °F 85.8 °F 73.0 °F 77% 29.86 in 10.0 mi South 6.9 mph - N/A   Partly Cloudy
11:53 PM 80.1 °F 83.6 °F 71.1 °F 74% 29.86 in 10.0 mi South 4.6 mph - N/A   Scattered Clouds